User: anonymous   Login
Location: Unspecified
(0.0000°N, 0.0000°E)
Time: 10:46:01
(UTC+00:00)
Language:

CAS-6 - Orbit

View from above orbital plane
View from above orbital plane
View from above satellite
View from above satellite

Ground track
Ground track

The orbit data is extracted from the following two-line orbital elements,

1 44881U 19093C   21342.85844843  .00000189  00000-0  30777-4 0  9999
2 44881  97.9124  59.6699 0016494  86.3262 273.9825 14.81520183106550
Epoch (UTC): 08 December 2021 20:36:09
Eccentricity: 0.0016494
inclination: 97.9124°
perigee height: 613 km
apogee height: 636 km
right ascension of ascending node: 59.6699°
argument of perigee: 86.3262°
revolutions per day: 14.81520183
mean anomaly at epoch: 273.9825°
orbit number at epoch: 10655

The dashed part of the orbit path shows where the satellite is in the earth's shadow,  

DLR